This is the latest recevied weather packets stored in our database for station/object KB1FFS. If no packets are shown the sender has not sent any weather packets the latest 10 day(s).
| Time | Temp. | Humidity | Pressure | Rain* | Wind** | Luminosity | Snow |
|---|---|---|---|---|---|---|---|
| 1788080978 | 28.89° C | 58% | 1015.7 hPa | 0 mm | - | 0 W/m² | - |
| 1788080674 | 28.89° C | 58% | 1015.6 hPa | 0 mm | - | 0 W/m² | - |
| 1788080369 | 28.89° C | 58% | 1015.6 hPa | 0 mm | - | 0 W/m² | - |
| 1788080064 | 28.89° C | 58% | 1015.8 hPa | 0 mm | - | 0 W/m² | - |
| 1788079761 | 28.89° C | 57% | 1015.6 hPa | 0 mm | - | 0 W/m² | - |
| 1788079461 | 28.89° C | 57% | 1015.7 hPa | 0 mm | - | 0 W/m² | - |
| 1788079156 | 28.33° C | 58% | 1015.5 hPa | 0 mm | - | 0 W/m² | - |
| 1788078852 | 28.33° C | 58% | 1015.8 hPa | 0 mm | - | 0 W/m² | - |
| 1788078551 | 27.78° C | 58% | 1015.7 hPa | 0 mm | - | 0 W/m² | - |
| 1788078247 | 27.78° C | 59% | 1015.6 hPa | 0 mm | - | 0 W/m² | - |
| 1788077942 | 27.78° C | 58% | 1015.6 hPa | 0 mm | - | 0 W/m² | - |
| 1788077636 | 27.78° C | 58% | 1015.7 hPa | 0 mm | - | 0 W/m² | - |
| 1788077335 | 27.78° C | 57% | 1015.8 hPa | 0 mm | - | 0 W/m² | - |
| 1788077033 | 27.78° C | 57% | 1015.7 hPa | 0 mm | - | 0 W/m² | - |
| 1788076731 | 27.78° C | 57% | 1015.8 hPa | 0 mm | - | 0 W/m² | - |
| 1788076427 | 28.33° C | 56% | 1015.7 hPa | 0 mm | - | 0 W/m² | - |
| 1788076122 | 28.33° C | 56% | 1015.6 hPa | 0 mm | - | 0 W/m² | - |
| 1788075817 | 28.33° C | 56% | 1015.7 hPa | 0 mm | - | 0 W/m² | - |
| 1788075513 | 28.33° C | 55% | 1015.7 hPa | 0 mm | - | 0 W/m² | - |
| 1788075209 | 28.33° C | 55% | 1015.8 hPa | 0 mm | - | 0 W/m² | - |
| 1788074904 | 28.89° C | 55% | 1015.7 hPa | 0 mm | - | 0 W/m² | - |
| 1788074600 | 28.89° C | 54% | 1015.9 hPa | 0 mm | - | 0 W/m² | - |
| 1788074294 | 28.89° C | 53% | 1015.9 hPa | 0 mm | - | 0 W/m² | - |
| 1788073994 | 29.44° C | 53% | 1016.1 hPa | 0 mm | - | 0 W/m² | - |
| 1788073693 | 29.44° C | 53% | 1015.8 hPa | 0 mm | - | 0 W/m² | - |
* Rain latest hour (hover to see other rain measurements)
** Current wind speed in m/s (hover to see current wind gust speed)